TIME,DELAY(SENSOR),PRES,OXYGEN,RAWTEMP,T(OPTODE),TCPHASE,FLUOR,BETA(BETA700),BETA(BETA412),BETA(BETA440),CDOM,C(CSC),ED(ED411.90),ED(ED443.80),ED(ED489.40),ED(ED554.70),LU(LU412.20),LU(LU443.80),LU(LU489.40),LU(LU555.00),COMP,TILTX,TILTY,CHECK
1376344778,5808,874.4099731445312000,130.9732055664062500,426.7565917968750000,9.7855434417724610,41.8337898254394500,78,1374,54,54,61,10392,2146959716,2147515510,2147289929,2147498038,2147085019,2146930898,2147700370,2147122185,460,-1,8,32977
1376348374,5805,986.3099975585938000,152.4853973388672000,503.3331909179687500,7.4260458946228030,41.2795600891113300,78,1409,54,55,62,10388,2146965741,2147518802,2147300032,2147508196,2147083382,2146918464,2147716077,2147123200,2623,-1,8,60976
1376351974,5805,1008.5499877929688000,137.8078002929687500,515.7019042968750000,7.0415201187133790,42.6936187744140600,78,1414,54,54,62,10388,2146968000,2147518848,2147297051,2147512146,2147085394,2146918500,2147721572,2147118509,3391,-1,8,4505
1376355574,5807,1011.7899780273438000,152.2998046875000000,517.3167724609375000,6.9912362098693850,41.5347099304199200,78,1412,54,56,61,10384,2146965421,2147518756,2147300004,2147512292,2147083245,2146919862,2147719789,2147113920,3124,-1,8,26320
1376359174,5803,1015.2899780273438000,152.0666046142578000,518.6135864257812000,6.9508409500122070,41.5748710632324200,77,1415,56,55,60,10382,2146963382,2147516754,2147299556,2147511826,2147083657,2146918921,2147720018,2147121901,3526,-1,8,668
1376362774,5807,1016.1099853515625000,154.7154998779297000,520.0593872070312000,6.9057950973510740,41.3920402526855500,78,1416,54,55,61,10385,2146962816,2147519917,2147301074,2147512164,2147084955,2146920868,2147719771,2147120448,3568,-1,8,20896
1376366374,5806,1011.2299804687500000,165.9102935791015600,521.9959716796875000,6.8454318046569820,40.5815315246582000,78,1420,55,54,61,10384,2146963510,2147516736,2147300754,2147513837,2147087058,2146915748,2147717440,2147119798,2788,-1,8,14569
1376369974,5806,1015.8300170898438000,166.6983947753906200,523.3032226562500000,6.8046717643737790,40.5458183288574200,79,1422,55,54,62,10378,2146965156,2147516379,2147297627,2147512832,2147083794,2146920027,2147717668,2147119716,2848,-1,8,44944
1376373574,5805,1012.3800048828125000,147.0704040527343800,524.0469970703125000,6.7814731597900390,42.0687294006347660,79,1435,56,56,61,10382,2146964342,2147518509,2147301403,2147512566,2147082386,2146919341,2147721142,2147122221,3403,-1,8,14053
1376377174,5804,1007.2700195312500000,159.1047973632812500,525.8676757812500000,6.7246718406677250,41.1575202941894500,78,1431,54,54,60,10376,2146962761,2147518509,2147300726,2147512685,2147088301,2146920740,2147721481,2147123026,3133,-1,8,19299
1376380774,5805,1011.8099975585938000,189.7109985351562500,526.2666015625000000,6.7122230529785160,39.0136604309082000,80,1455,55,54,61,10375,2146964068,2147518646,2147301513,2147509513,2147085348,2146914596,2147720612,2147120777,3047,-1,8,4166
1376384374,5809,1012.0599975585938000,191.6024932861328000,526.9348144531250000,6.6913700103759770,38.9034881591796900,80,1447,54,54,62,10375,2146962048,2147517696,2147298505,2147512457,2147083885,2146916644,2147718253,2147121965,3153,-1,8,23864
1376387974,5806,1010.2800292968750000,195.5157012939453000,527.6947021484375000,6.6676478385925290,38.6682510375976560,79,1454,54,54,61,10144,2146963291,2147517805,2147300068,2147513325,2147085997,2146917714,2147718747,2147118601,3405,-1,8,32513
1376391574,5806,1009.9199829101562000,190.4900054931640600,527.9008789062500000,6.6612091064453125,38.9922218322753900,79,1461,54,54,61,10135,2146962861,2147518683,2147299858,2147513920,2147085760,2146917869,2147722962,2147119204,3243,-1,8,37746
1376395174,5807,1010.0399780273438000,187.7519989013672000,528.2708740234375000,6.6496582031250000,39.1770210266113300,80,1463,55,54,61,10131,2146962276,2147516507,2147299821,2147516041,2147086784,2146916717,2147721938,2147120630,3560,-1,8,40779
1376398774,5805,1004.3599853515625000,165.8845977783203000,531.3582763671875000,6.5532279014587400,40.7483100891113300,79,1469,55,54,60,10136,2146964150,2147519634,2147302253,2147516992,2147087040,2146919606,2147723309,2147122861,3353,-1,8,51815
1376402374,5808,1007.7800292968750000,176.5366973876953000,531.2512207031250000,6.5565738677978520,39.9874305725097660,79,1472,54,54,60,10133,2146962706,2147518665,2147301595,2147513472,2147083419,2146926427,2147722523,2147120073,3597,-1,8,62610
1376405974,5805,1011.7199707031250000,202.3063049316406200,528.9481201171875000,6.6285128593444820,38.2685699462890600,79,1477,54,54,61,10132,2146964507,2147519396,2147297161,2147517257,2147086354,2146918345,2147721554,2147120521,637,-1,8,64530
1376409574,5808,1007.6599731445312000,169.4965057373047000,531.4934082031250000,6.5490069389343260,40.4883308410644500,79,1483,53,54,60,10130,2146968000,2147520118,2147301568,2147512987,2147086537,2146919186,2147726016,2147121334,102,-1,8,45207
1376413174,5807,1004.4699707031250000,173.8818969726562500,532.5510253906250000,6.5159549713134770,40.1953086853027340,81,1495,55,52,61,10135,2146962688,2147520155,2147297874,2147514459,2147085952,2146916982,2147720164,2147119652,292,-1,8,28573
1376416774,5807,1005.7299804687500000,196.7375030517578000,532.3687133789062000,6.5216560363769530,38.6742095947265600,81,1493,54,55,60,10132,2146964169,2147519707,2147301275,2147513700,2147084598,2146918939,2147720237,2147121380,235,0,7,11209
1376420374,5805,1006.6799926757812000,181.8865051269531200,533.7755126953125000,6.4776821136474610,39.6659584045410160,79,1491,54,55,60,10129,2146962002,2147519131,2147299254,2147515721,2147087616,2146917165,2147724845,2147120045,2,-1,8,10759
1376423974,5807,1003.1500244140625000,169.9739074707031200,534.2274780273438000,6.4635472297668460,40.5030784606933600,79,1492,55,56,60,10129,2146963108,2147518390,2147298934,2147515712,2147085147,2146919881,2147722578,2147118518,399,0,8,47252
1376427574,5807,998.9199829101562000,194.1806945800781200,536.3538208007812000,6.3970489501953125,38.9078102111816400,80,1497,55,54,61,10132,2146965019,2147517357,2147299300,2147512685,2147087588,2146915894,2147718811,2147117202,3591,-1,8,52108
1376431174,5807,994.6400146484375000,213.0709075927734400,537.8364868164062000,6.3506579399108890,37.7887191772460940,80,1500,55,55,60,10125,2146962011,2147518482,2147302921,2147514889,2147085174,2146919021,2147720978,2147123456,612,-1,8,9151
1376434774,5808,994.4299926757812000,214.8995971679687500,539.1099853515625000,6.3107991218566895,37.7053604125976560,82,1500,54,55,60,10111,2146962176,2147521709,2147302034,2147512621,2147082770,2146921572,2147724928,2147119259,66,-1,8,32924
1376438374,5807,991.2199707031250000,218.4667968750000000,540.3500976562500000,6.2719731330871580,37.5247917175293000,80,1502,55,54,61,10105,2146965046,2147519963,2147298797,2147513792,2147084672,2146919369,2147720813,2147120649,121,-1,8,25396
1376441974,5806,990.1400146484375000,215.4226989746093800,541.5393066406250000,6.2347297668457030,37.7193794250488300,80,1505,54,54,60,10109,2146963995,2147519789,2147297682,2147516452,2147086162,2146921819,2147727049,2147121453,440,-1,8,24336
1376445574,5806,989.0499877929688000,217.8240051269531200,541.9630737304688000,6.2214550971984860,37.5900497436523440,81,1506,55,54,60,10112,2146967853,2147519734,2147302756,2147514706,2147083638,2146916260,2147723218,2147122276,3275,-1,8,49035
1376449174,5802,980.9600219726562000,199.6959991455078000,542.4639282226562000,6.2057671546936035,38.6721000671386700,81,1509,54,55,61,10116,2146965842,2147520091,2147301613,2147519414,2147085430,2146912329,2147720685,2147120850,3491,-1,8,32188
1376452774,5806,984.2000122070312000,222.2758941650390600,542.7321777343750000,6.1973590850830080,37.3546905517578100,81,1513,54,55,59,10112,2146964269,2147517952,2147300114,2147516452,2147085586,2146916736,2147725266,2147118902,272,-1,8,42210
1376456374,5806,982.4400024414062000,215.6152954101562500,543.0131225585938000,6.1885600090026855,37.7352104187011700,82,1518,53,54,60,10117,2146968192,2147517193,2147301293,2147517211,2147085376,2146913581,2147724580,2147120173,3042,-1,8,36893
1376459974,5805,978.8900146484375000,216.4613037109375000,543.1677246093750000,6.1837139129638670,37.6895217895507800,82,1521,55,55,59,10104,2146966162,2147516964,2147303021,2147516662,2147086893,2146917979,2147726720,2147118619,2979,-1,8,56293
1376463574,5805,983.2500000000000000,217.5359954833984400,543.9450073242188000,6.1593551635742190,37.6426200866699200,82,1528,55,54,61,10103,2146965138,2147519232,2147300534,2147513929,2147084937,2146917010,2147727414,2147118820,3207,-1,8,28530
1376467174,5804,987.7899780273438000,216.2084045410156200,542.9794921875000000,6.1896109580993650,37.7005996704101560,81,1527,54,52,60,10100,2146961462,2147517659,2147301732,2147517138,2147086793,2146918363,2147721664,2147121179,3560,-1,8,29360
1376470774,5807,982.2999877929688000,207.9248046875000000,542.8513183593750000,6.1936302185058590,38.1807403564453100,82,1529,53,55,61,10100,2146965046,2147517312,2147304301,2147516992,2147086162,2146922432,2147728393,2147122057,186,-1,8,6950
1376474374,5806,984.3699951171875000,225.6118011474609400,543.4398803710938000,6.1751818656921390,37.1842193603515600,81,1534,55,54,60,10103,2146964946,2147519369,2147303835,2147516763,2147085750,2146917485,2147722130,2147120192,284,-1,8,43541
1376477974,5807,982.8099975585938000,221.2624053955078000,543.8079833984375000,6.1636490821838380,37.4303588867187500,81,1538,54,54,61,10097,2146963273,2147518144,2147303104,2147517485,2147084562,2146914944,2147728009,2147120237,563,-1,8,37054
1376481574,5805,976.8300170898438000,216.1224060058593800,545.0250244140625000,6.1255040168762210,37.7425689697265600,83,1541,55,54,61,10079,2146962907,2147520064,2147299227,2147516516,2147086500,2146922459,2147724132,2147120768,3219,-1,8,51794
1376485174,5806,975.4899902343750000,210.6694030761718800,546.4503784179688000,6.0808110237121580,38.0848617553710940,80,1543,54,53,60,10082,2146965339,2147519625,2147299638,2147516946,2147088621,2146913270,2147725568,2147121572,3490,-1,8,19971
1376487056,5804,972.2600097656250000,224.6360931396484400,547.4024047851562000,6.0509490966796875,37.3091583251953100,81,1546,54,54,61,10356,2146963300,2147522084,2147303506,2147514806,2147087076,2146919917,2147725074,2147124617,3017,-1,8,5491
